Newport, AR

3:12 PM CDT on March 29, 2017 (GMT -0500)
Newport

Weather History for KM19 - February, 2013

Change the Weather History Date:

Thursday, February 21, 2013

  Actual Average (KBVX) Record (KBVX)
Temperature  
Mean Temperature 32 °F -  
Max Temperature 33 °F 59 °F 75 °F (2016)
Min Temperature 30 °F 32 °F 32 °F (2015)
Degree Days  
Heating Degree Days 34    
Moisture  
Dew Point 30 °F    
Average Humidity 95    
Maximum Humidity 100    
Minimum Humidity 75    
Precipitation  
Precipitation 1.47 in - - ()
Sea Level Pressure  
Sea Level Pressure 29.92 in    
Wind  
Wind Speed 13 mph (NE)    
Max Wind Speed 24 mph    
Max Gust Speed 25 mph    
Visibility 5 miles    
Events Snow , Thunderstorm    
Averages and records for this station are not official NWS values.
T = Trace of Precipitation, MM = Missing Value Source: NWS Daily Summary

Daily Weather History Graph

Daily Weather History Graph

Search for Another Location

Airport or City:

Trip Planner

Search our weather history database for the weather conditions in past years. The results will help you decide how hot, cold, wet, or windy it might be!

Date:

Astronomy

Feb. 21, 2013 Rise Set
Actual Time 6:44 AM CST 5:52 PM CST
Civil Twilight 6:18 AM CST 6:18 PM CST
Nautical Twilight 5:48 AM CST 6:48 PM CST
Astronomical Twilight 5:19 AM CST 7:17 PM CST
Moon 2:12 PM CST (2/21) 3:43 AM CST (2/21)
Length of Visible Light 12h 00m
Length of Day
11h 08m
Waxing Gibbous, 84% of the Moon is Illuminated
Feb 21
Waxing Gibbous
Feb 25
Full
Mar 4
Last Quarter
Mar 11
New
Mar 19
First Quarter

Hourly Weather History & Observations

Time (CST) Temp. Windchill Dew Point Humidity Pressure Visibility Wind Dir Wind Speed Gust Speed Precip Events Conditions
12:56 AM 31.1 °F 21.9 °F 24.1 °F 75% 30.22 in 10.0 mi NE 11.5 mph - 0.00 in Snow Light Snow
1:56 AM 31.1 °F 20.5 °F 24.1 °F 75% 30.22 in 10.0 mi ENE 15.0 mph - 0.00 in Snow Light Snow
2:56 AM 30.0 °F 19.5 °F 25.2 °F 82% 30.19 in 10.0 mi NE 13.8 mph - 0.00 in Snow Light Snow
3:56 AM 30.0 °F 17.9 °F 25.2 °F 82% 30.15 in 10.0 mi ENE 18.4 mph - 0.02 in Snow Light Snow
4:56 AM 30.0 °F 18.7 °F 26.1 °F 85% 30.14 in 10.0 mi ENE 16.1 mph - 0.02 in Snow Light Snow
5:49 AM 30.2 °F 18.9 °F 24.8 °F 80% 30.12 in 10.0 mi ENE 16.1 mph - 0.00 in   Overcast
5:56 AM 30.0 °F 17.9 °F 26.1 °F 85% 30.12 in 10.0 mi ENE 18.4 mph - 0.00 in   Overcast
6:56 AM 30.0 °F 19.1 °F 25.2 °F 82% 30.12 in 10.0 mi East 15.0 mph - N/A   Overcast
7:56 AM 30.0 °F 19.5 °F 26.1 °F 85% 30.09 in 10.0 mi East 13.8 mph - 0.00 in Snow Light Snow
8:56 AM 31.1 °F 18.9 °F 27.1 °F 85% 30.02 in 10.0 mi ENE 19.6 mph - 0.00 in   Overcast
9:46 AM 30.2 °F 18.1 °F 26.6 °F 86% 30.02 in 10.0 mi ENE 18.4 mph - 0.00 in Snow , Thunderstorm Light Thunderstorms and Snow
9:56 AM 31.1 °F 20.9 °F 27.1 °F 85% 30.04 in 5.0 mi NE 13.8 mph - 0.03 in Snow Light Snow
10:40 AM 30.2 °F 18.9 °F 28.4 °F 93% 29.96 in 4.0 mi NE 16.1 mph - 0.10 in Snow , Thunderstorm Light Thunderstorms and Snow
10:56 AM 31.1 °F 20.1 °F 28.0 °F 88% 29.98 in 4.0 mi NE 16.1 mph - 0.16 in Snow , Thunderstorm Light Thunderstorms and Snow
11:03 AM 30.2 °F 19.8 °F 28.4 °F 93% 29.98 in 5.0 mi NE 13.8 mph - 0.02 in Snow Light Snow
11:24 AM 30.2 °F 17.4 °F 28.4 °F 93% 29.91 in 2.5 mi ENE 20.7 mph - 0.13 in Snow Light Snow
11:31 AM 30.2 °F 18.5 °F 28.4 °F 93% 29.94 in 2.5 mi ENE 17.3 mph - 0.17 in Snow , Thunderstorm Light Thunderstorms and Snow
11:46 AM 30.2 °F 18.9 °F 28.4 °F 93% 29.93 in 2.0 mi ENE 16.1 mph 25.3 mph 0.25 in Snow Light Snow
11:56 AM 31.1 °F 22.4 °F 29.1 °F 92% 29.96 in 2.0 mi NE 10.4 mph - 0.31 in Snow Light Snow
12:07 PM 30.2 °F 20.8 °F 28.4 °F 93% 29.97 in 1.8 mi NE 11.5 mph - 0.08 in Snow , Thunderstorm Light Thunderstorms and Snow
12:30 PM 30.2 °F 23.4 °F 30.2 °F 100% 29.97 in 3.0 mi NNE 6.9 mph - 0.21 in Snow , Thunderstorm Light Thunderstorms and Snow
12:37 PM 30.2 °F 17.8 °F 30.2 °F 100% 29.90 in 1.8 mi ENE 19.6 mph - 0.31 in Snow , Thunderstorm Light Thunderstorms and Snow
12:43 PM 30.2 °F 16.5 °F 30.2 °F 100% 29.85 in 1.0 mi ENE 24.2 mph - 0.38 in Snow , Thunderstorm Light Thunderstorms and Snow
12:47 PM 30.2 °F 17.8 °F 30.2 °F 100% 29.87 in 1.2 mi ENE 19.6 mph - 0.41 in Snow , Thunderstorm Light Thunderstorms and Snow
12:56 PM 31.1 °F 21.4 °F 30.0 °F 96% 29.90 in 4.0 mi NE 12.7 mph - 0.41 in Snow , Thunderstorm Light Thunderstorms and Snow
1:05 PM 30.2 °F 20.2 °F 30.2 °F 100% 29.89 in 8.0 mi ENE 12.7 mph - 0.00 in Snow Light Snow
1:13 PM 30.2 °F 20.8 °F 30.2 °F 100% 29.89 in 3.0 mi ENE 11.5 mph - 0.02 in Snow Light Snow
1:15 PM 30.2 °F 19.3 °F 30.2 °F 100% 29.86 in 2.5 mi ENE 15.0 mph - 0.03 in Snow Light Snow
1:22 PM 30.2 °F 18.9 °F 30.2 °F 100% 29.85 in 1.2 mi ENE 16.1 mph - 0.11 in Snow Light Snow
1:29 PM 30.2 °F 18.5 °F 30.2 °F 100% 29.84 in 1.0 mi ENE 17.3 mph - 0.19 in Snow Light Snow
1:34 PM 30.2 °F 18.5 °F 30.2 °F 100% 29.83 in 1.5 mi East 17.3 mph - 0.22 in Snow Light Snow
1:38 PM 30.2 °F 18.1 °F 30.2 °F 100% 29.83 in 2.0 mi East 18.4 mph - 0.23 in Snow Light Snow
1:49 PM 30.2 °F 21.9 °F 30.2 °F 100% 29.90 in 3.0 mi NNW 9.2 mph - 0.25 in Snow Light Snow
1:56 PM 31.1 °F 21.9 °F 31.1 °F 100% 29.88 in 3.0 mi NE 11.5 mph - 0.30 in Snow Light Snow
2:05 PM 30.2 °F 21.9 °F 30.2 °F 100% 29.90 in 2.5 mi North 9.2 mph - 0.02 in Snow Light Snow
2:16 PM 30.2 °F 20.8 °F 30.2 °F 100% 29.87 in 3.0 mi NE 11.5 mph - 0.04 in Snow Light Snow
2:56 PM 32.0 °F 23.0 °F 31.1 °F 96% 29.86 in 5.0 mi NE 11.5 mph - 0.07 in Snow Light Snow
3:12 PM 32.0 °F 22.5 °F 30.2 °F 93% 29.84 in 5.0 mi NE 12.7 mph - 0.00 in Snow Light Snow
3:20 PM 32.0 °F 22.5 °F 30.2 °F 93% 29.83 in 5.0 mi NE 12.7 mph - 0.00 in Snow Light Snow
3:34 PM 32.0 °F 22.5 °F 32.0 °F 100% 29.83 in 2.5 mi NE 12.7 mph - 0.03 in Snow Light Snow
3:42 PM 32.0 °F 22.5 °F 32.0 °F 100% 29.82 in 2.5 mi NE 12.7 mph - 0.04 in Snow Light Snow
3:56 PM 32.0 °F 22.1 °F 32.0 °F 100% 29.83 in 4.0 mi NE 13.8 mph - 0.05 in   Partly Cloudy
4:47 PM 32.0 °F 23.6 °F 32.0 °F 100% 29.81 in 2.5 mi NE 10.4 mph - 0.02 in Snow Light Snow
4:56 PM 32.0 °F 23.6 °F 32.0 °F 100% 29.83 in 2.5 mi NE 10.4 mph - 0.02 in Snow Light Snow
5:14 PM 32.0 °F 24.2 °F 32.0 °F 100% 29.83 in 1.8 mi NNE 9.2 mph - 0.01 in Snow Light Snow
5:36 PM 32.0 °F 25.6 °F 32.0 °F 100% 29.86 in 1.5 mi North 6.9 mph - 0.04 in Snow , Thunderstorm Light Thunderstorms and Snow
5:49 PM 32.0 °F 24.8 °F 32.0 °F 100% 29.84 in 2.0 mi NNE 8.1 mph - 0.07 in Snow , Thunderstorm Light Thunderstorms and Snow
5:56 PM 32.0 °F 24.8 °F 32.0 °F 100% 29.85 in 2.5 mi NE 8.1 mph - 0.07 in Snow , Thunderstorm Light Thunderstorms and Snow
6:03 PM 32.0 °F 23.6 °F 32.0 °F 100% 29.84 in 5.0 mi NE 10.4 mph - 0.00 in Snow Light Snow
6:46 PM 32.0 °F 23.0 °F 32.0 °F 100% 29.82 in 7.0 mi NE 11.5 mph - 0.01 in Snow Light Snow
6:56 PM 32.0 °F 24.2 °F 32.0 °F 100% 29.83 in 9.0 mi NNE 9.2 mph - 0.01 in   Partly Cloudy
7:33 PM 33.8 °F 27.7 °F 33.8 °F 100% 29.84 in 10.0 mi North 6.9 mph - 0.00 in   Mostly Cloudy
7:56 PM 32.0 °F 24.8 °F 32.0 °F 100% 29.87 in 3.0 mi NW 8.1 mph - 0.00 in Snow Light Snow
8:07 PM 32.0 °F 26.4 °F 32.0 °F 100% 29.86 in 2.5 mi NNW 5.8 mph - 0.00 in Snow Light Snow
8:29 PM 32.0 °F 25.6 °F 32.0 °F 100% 29.87 in 3.0 mi NW 6.9 mph - 0.00 in Snow Light Snow
8:43 PM 32.0 °F 24.2 °F 32.0 °F 100% 29.88 in 5.0 mi NW 9.2 mph - 0.00 in Snow Light Snow
8:56 PM 32.0 °F 24.8 °F 32.0 °F 100% 29.90 in 5.0 mi NW 8.1 mph - 0.00 in   Mostly Cloudy
9:39 PM 32.0 °F 25.6 °F 32.0 °F 100% 29.89 in 6.0 mi NNW 6.9 mph - N/A   Mostly Cloudy
9:48 PM 32.0 °F 23.6 °F 32.0 °F 100% 29.90 in 7.0 mi NW 10.4 mph - N/A   Overcast
9:56 PM 32.0 °F 24.8 °F 32.0 °F 100% 29.91 in 7.0 mi NW 8.1 mph - N/A   Overcast
10:56 PM 32.0 °F - 32.0 °F 100% 29.90 in 6.0 mi Calm Calm - N/A   Overcast
11:09 PM 32.0 °F - 32.0 °F 100% 29.88 in 5.0 mi Calm Calm - N/A   Overcast
11:38 PM 32.0 °F 26.4 °F 32.0 °F 100% 29.89 in 4.0 mi SE 5.8 mph - N/A   Overcast
11:56 PM 32.0 °F 26.4 °F 32.0 °F 100% 29.90 in 1.2 mi Variable 5.8 mph - N/A   Mostly Cloudy
11:59 PM 32.0 °F 27.5 °F 32.0 °F 100% 29.89 in 0.8 mi SSE 4.6 mph - N/A   Mist